This is the latest recevied weather packets stored in our database for station/object IZ5MMH-1. If no packets are shown the sender has not sent any weather packets the latest 10 day(s).
| Time | Temp. | Humidity | Pressure | Rain* | Wind** | Luminosity | Snow |
|---|---|---|---|---|---|---|---|
| 1787793890 | 22.22° C | 68% | 1017.7 hPa | - | - | - | - |
| 1787793290 | 22.22° C | 69% | 1017.7 hPa | - | - | - | - |
| 1787792697 | 22.22° C | 68% | 1017.8 hPa | - | - | - | - |
| 1787792093 | 22.22° C | 71% | 1017.8 hPa | - | - | - | - |
| 1787791490 | 22.22° C | 68% | 1017.2 hPa | - | - | - | - |
| 1787790891 | 22.22° C | 67% | 1017.1 hPa | - | - | - | - |
| 1787790290 | 22.22° C | 69% | 1017 hPa | - | - | - | - |
| 1787789691 | 22.78° C | 72% | 1016.9 hPa | - | - | - | - |
| 1787789091 | 22.78° C | 67% | 1016.7 hPa | - | - | - | - |
| 1787788490 | 22.78° C | 69% | 1016.7 hPa | - | - | - | - |
| 1787787890 | 22.78° C | 67% | 1016.5 hPa | - | - | - | - |
| 1787787291 | 22.78° C | 68% | 1016.6 hPa | - | - | - | - |
| 1787786691 | 22.78° C | 68% | 1016.7 hPa | - | - | - | - |
| 1787786091 | 22.78° C | 67% | 1016.8 hPa | - | - | - | - |
| 1787785491 | 22.78° C | 67% | 1017.1 hPa | - | - | - | - |
| 1787784890 | 22.78° C | 67% | 1017.1 hPa | - | - | - | - |
| 1787784291 | 22.78° C | 72% | 1017.1 hPa | - | - | - | - |
| 1787783690 | 22.78° C | 71% | 1017.4 hPa | - | - | - | - |
| 1787783091 | 22.78° C | 66% | 1017.3 hPa | - | - | - | - |
| 1787782491 | 22.78° C | 65% | 1017.5 hPa | - | - | - | - |
| 1787781890 | 23.33° C | 65% | 1017.5 hPa | - | - | - | - |
| 1787781290 | 23.33° C | 64% | 1017.5 hPa | - | - | - | - |
| 1787780690 | 23.33° C | 63% | 1017.5 hPa | - | - | - | - |
| 1787780090 | 23.89° C | 64% | 1017.7 hPa | - | - | - | - |
| 1787779489 | 23.89° C | 62% | 1017.5 hPa | - | - | - | - |
* Rain since midnight (hover to see other rain measurements)
** Current wind speed in m/s (hover to see current wind gust speed)